• In Denmark
  • List of Countries
  • For 7 days
  • Water Temperature
  • Satellite Maps
  • Weather Map
  • Weather Widgets
  • user-avatar
    Login

    Hourly Weather Chochorowice

    Today, 23 September, Sunday

    Time Temperature Precipitation Wind Pressure Humidity
    00:00 +10°C° 0 mm 2 mps 726 mmHg 69%
    01:00 +10°C° 0 mm 2 mps 726 mmHg 70%
    02:00 +10°C° 0 mm 2 mps 726 mmHg 72%
    03:00 +9°C° 0 mm 2 mps 726 mmHg 74%
    04:00 +9°C° 0 mm 2 mps 726 mmHg 77%
    05:00 +9°C° 0 mm 2 mps 726 mmHg 75%
    06:00 +10°C° 0 mm 2 mps 725 mmHg 73%
    07:00 +10°C° 0 mm 2 mps 725 mmHg 72%
    08:00 +12°C° 0 mm 3 mps 725 mmHg 64%
    09:00 +14°C° 0 mm 3 mps 725 mmHg 57%
    10:00 +15°C° 0 mm 4 mps 726 mmHg 50%
    11:00 +17°C° 0 mm 3 mps 725 mmHg 51%
    12:00 +17°C° 0 mm 3 mps 725 mmHg 51%
    13:00 +17°C° 0 mm 3 mps 724 mmHg 51%
    14:00 +16°C° 0.1 mm 3 mps 724 mmHg 58%
    15:00 +16°C° 0.1 mm 2 mps 723 mmHg 64%
    16:00 +15°C° 0.1 mm 2 mps 722 mmHg 70%
    17:00 +14°C° 0.1 mm 2 mps 722 mmHg 73%
    18:00 +13°C° 0.1 mm 3 mps 721 mmHg 76%
    19:00 +12°C° 0.1 mm 3 mps 720 mmHg 79%
    20:00 +13°C° 0 mm 4 mps 719 mmHg 76%
    21:00 +14°C° 0 mm 5 mps 718 mmHg 73%
    22:00 +14°C° 0 mm 6 mps 717 mmHg 71%
    23:00 +15°C° 1.4 mm 6 mps 716 mmHg 76%

    Tomorrow, 24 September, Monday

    Time Temperature Precipitation Wind Pressure Humidity
    00:00 +15°C° 1.4 mm 6 mps 715 mmHg 81%
    01:00 +15°C° 1.4 mm 6 mps 715 mmHg 86%
    02:00 +14°C° 2.8 mm 6 mps 715 mmHg 87%
    03:00 +13°C° 2.8 mm 6 mps 716 mmHg 89%
    04:00 +11°C° 2.8 mm 6 mps 717 mmHg 91%
    05:00 +10°C° 0.6 mm 6 mps 718 mmHg 89%
    06:00 +8°C° 0.6 mm 6 mps 719 mmHg 88%
    07:00 +7°C° 0.6 mm 6 mps 720 mmHg 87%
    08:00 +7°C° 0.2 mm 6 mps 722 mmHg 84%
    09:00 +8°C° 0.2 mm 7 mps 723 mmHg 81%
    10:00 +8°C° 0.2 mm 7 mps 724 mmHg 78%
    11:00 +9°C° 0.1 mm 7 mps 724 mmHg 72%
    12:00 +9°C° 0.1 mm 8 mps 725 mmHg 66%
    13:00 +10°C° 0.1 mm 8 mps 725 mmHg 60%
    14:00 +9°C° 0.2 mm 7 mps 726 mmHg 61%
    15:00 +9°C° 0.2 mm 7 mps 726 mmHg 61%
    16:00 +8°C° 0.2 mm 7 mps 726 mmHg 62%
    17:00 +7°C° 0.1 mm 6 mps 727 mmHg 66%
    18:00 +6°C° 0.1 mm 5 mps 727 mmHg 69%
    19:00 +5°C° 0.1 mm 4 mps 727 mmHg 73%
    20:00 +5°C° 0 mm 5 mps 728 mmHg 72%
    21:00 +3°C° 0 mm 5 mps 728 mmHg 72%
    22:00 +3°C° 0 mm 5 mps 728 mmHg 71%
    23:00 +3°C° 0.5 mm 5 mps 728 mmHg 76%

    Day after tomorrow, 25 September, Tuesday

    Time Temperature Precipitation Wind Pressure Humidity
    00:00 +3°C° 0.5 mm 5 mps 729 mmHg 80%
    01:00 +3°C° 0.5 mm 5 mps 729 mmHg 84%
    02:00 +3°C° 0.1 mm 5 mps 730 mmHg 85%
    03:00 +3°C° 0.1 mm 5 mps 730 mmHg 87%
    04:00 +3°C° 0.1 mm 4 mps 731 mmHg 88%
    05:00 +4°C° 0 mm 4 mps 731 mmHg 87%
    06:00 +4°C° 0 mm 4 mps 732 mmHg 85%
    07:00 +4°C° 0 mm 4 mps 733 mmHg 84%
    08:00 +5°C° 0.1 mm 5 mps 733 mmHg 78%
    09:00 +6°C° 0.1 mm 5 mps 734 mmHg 71%
    10:00 +7°C° 0.1 mm 6 mps 734 mmHg 64%
    11:00 +8°C° 0.3 mm 6 mps 735 mmHg 63%
    12:00 +8°C° 0.3 mm 6 mps 735 mmHg 61%
    13:00 +8°C° 0.3 mm 6 mps 735 mmHg 59%
    14:00 +8°C° 0.2 mm 5 mps 735 mmHg 60%
    15:00 +8°C° 0.2 mm 5 mps 735 mmHg 61%
    16:00 +8°C° 0.2 mm 4 mps 735 mmHg 63%
    17:00 +7°C° 0 mm 3 mps 736 mmHg 68%
    18:00 +5°C° 0 mm 3 mps 736 mmHg 73%
    19:00 +4°C° 0 mm 2 mps 736 mmHg 79%
    20:00 +4°C° 0 mm 2 mps 737 mmHg 80%
    21:00 +3°C° 0 mm 2 mps 737 mmHg 81%
    22:00 +3°C° 0 mm 2 mps 738 mmHg 82%
    23:00 +3°C° 0 mm 2 mps 738 mmHg 82%

    26 September, Wednesday

    Time Temperature Precipitation Wind Pressure Humidity
    00:00 +3°C° 0 mm 1 mps 738 mmHg 82%
    01:00 +3°C° 0 mm 1 mps 738 mmHg 83%
    02:00 +3°C° 0 mm 1 mps 738 mmHg 83%
    03:00 +2°C° 0 mm 1 mps 738 mmHg 83%
    04:00 +2°C° 0 mm 1 mps 738 mmHg 84%
    05:00 +3°C° 0 mm 1 mps 738 mmHg 80%
    06:00 +4°C° 0 mm 1 mps 738 mmHg 76%
    07:00 +5°C° 0 mm 1 mps 739 mmHg 73%
    08:00 +7°C° 0 mm 1 mps 739 mmHg 62%
    09:00 +10°C° 0 mm 1 mps 739 mmHg 52%
    10:00 +12°C° 0 mm 1 mps 739 mmHg 42%
    11:00 +13°C° 0 mm 1 mps 738 mmHg 39%
    12:00 +14°C° 0 mm 2 mps 738 mmHg 37%
    13:00 +14°C° 0 mm 2 mps 737 mmHg 34%
    14:00 +14°C° 0 mm 2 mps 737 mmHg 39%
    15:00 +14°C° 0 mm 1 mps 736 mmHg 44%
    16:00 +14°C° 0 mm 1 mps 736 mmHg 49%
    17:00 +12°C° 0 mm 1 mps 736 mmHg 53%
    18:00 +11°C° 0 mm 1 mps 735 mmHg 57%
    19:00 +8°C° 0 mm 2 mps 735 mmHg 61%
    20:00 +8°C° 0 mm 2 mps 735 mmHg 62%
    21:00 +8°C° 0 mm 2 mps 735 mmHg 63%
    22:00 +8°C° 0 mm 2 mps 735 mmHg 65%
    23:00 +8°C° 0 mm 2 mps 735 mmHg 64%

    27 September, Thursday

    Time Temperature Precipitation Wind Pressure Humidity
    00:00 +8°C° 0 mm 2 mps 734 mmHg 63%
    01:00 +8°C° 0 mm 2 mps 734 mmHg 63%
    02:00 +8°C° 0 mm 2 mps 734 mmHg 61%
    03:00 +8°C° 0 mm 2 mps 733 mmHg 59%
    04:00 +8°C° 0 mm 2 mps 733 mmHg 57%
    05:00 +9°C° 0 mm 2 mps 733 mmHg 56%
    06:00 +9°C° 0 mm 2 mps 733 mmHg 56%
    07:00 +9°C° 0 mm 2 mps 733 mmHg 56%
    08:00 +13°C° 0 mm 2 mps 733 mmHg 50%
    09:00 +15°C° 0 mm 2 mps 733 mmHg 43%
    10:00 +17°C° 0 mm 3 mps 733 mmHg 37%
    11:00 +18°C° 0 mm 3 mps 733 mmHg 36%
    12:00 +19°C° 0 mm 3 mps 733 mmHg 35%
    13:00 +20°C° 0 mm 3 mps 732 mmHg 34%
    14:00 +19°C° 0 mm 3 mps 732 mmHg 39%
    15:00 +19°C° 0 mm 2 mps 732 mmHg 44%
    16:00 +18°C° 0 mm 2 mps 731 mmHg 49%
    17:00 +16°C° 0 mm 2 mps 731 mmHg 53%
    18:00 +14°C° 0 mm 1 mps 731 mmHg 58%
    19:00 +12°C° 0 mm 1 mps 731 mmHg 62%
    20:00 +12°C° 0 mm 1 mps 731 mmHg 63%
    21:00 +11°C° 0 mm 1 mps 731 mmHg 63%
    22:00 +11°C° 0 mm 1 mps 731 mmHg 64%
    23:00 +11°C° 0 mm 1 mps 731 mmHg 65%

    28 September, Friday

    Time Temperature Precipitation Wind Pressure Humidity
    00:00 +11°C° 0 mm 1 mps 730 mmHg 65%
    01:00 +10°C° 0 mm 1 mps 730 mmHg 66%
    02:00 +10°C° 0 mm 1 mps 730 mmHg 67%
    03:00 +10°C° 0 mm 1 mps 729 mmHg 67%
    04:00 +9°C° 0 mm 2 mps 729 mmHg 68%
    05:00 +9°C° 0 mm 2 mps 729 mmHg 67%
    06:00 +10°C° 0 mm 2 mps 729 mmHg 66%
    07:00 +12°C° 0 mm 2 mps 729 mmHg 66%
    08:00 +14°C° 0 mm 2 mps 729 mmHg 59%
    09:00 +16°C° 0 mm 2 mps 729 mmHg 52%
    10:00 +19°C° 0 mm 2 mps 729 mmHg 45%
    11:00 +20°C° 0 mm 2 mps 728 mmHg 42%
    12:00 +21°C° 0 mm 2 mps 728 mmHg 40%
    13:00 +23°C° 0 mm 2 mps 727 mmHg 38%
    14:00 +21°C° 0 mm 2 mps 727 mmHg 42%
    15:00 +20°C° 0 mm 2 mps 726 mmHg 46%
    16:00 +21°C° 0 mm 1 mps 726 mmHg 50%
    17:00 +18°C° 0 mm 1 mps 726 mmHg 55%
    18:00 +15°C° 0 mm 2 mps 725 mmHg 60%
    19:00 +13°C° 0 mm 2 mps 725 mmHg 65%
    20:00 +12°C° 0 mm 2 mps 725 mmHg 67%
    21:00 +12°C° 0 mm 2 mps 725 mmHg 69%
    22:00 +10°C° 0 mm 2 mps 725 mmHg 71%
    23:00 +10°C° 0 mm 2 mps 724 mmHg 71%
    Show more